Location: Unspecified
(42.3650°N, 71.1030°W)
Time: 16:14:56
(UTC+00:00)

Transit 4A - Pass Details

Date: 01 July 2024
Orbit: 870 x 973 km, 66.8° (Epoch: 17 July)

Event Time Altitude Azimuth Distance (km) Brightness Sun altitude
Rises 08:13:14 0° 337° (NNW) 3,495 11.2 -9.3°
Reaches altitude 10° 08:16:21 10° 353° (N) 2,567 10.7 -8.9°
Maximum altitude 08:20:50 21° 42° (NE) 1,897 10.8 -8.3°
Drops below altitude 10° 08:25:21 10° 91° (E) 2,610 11.0 -7.7°
Sets 08:28:32 0° 106° (ESE) 3,569 11.5 -7.2°
